www.pogodaiklimat.ru

Погода и климат >> Архив погоды >> Россия >> Пермский край >> Бисер


АРХИВ ПОГОДЫ в Бисере

Время (UTC), дата Ветер
(напр.,м/с)
 
Видим.   Явления Облачность Т
(С)
Тd
(С)
f
(%)
Тe
(С)
Тes
(С)
Комфортность P
(гПа)
Po
(гПа)
Тmin
(С)
Tmax
(С)
R
(мм)
R24
(мм)
S
(см)
09 13.04 СЗ 4 50 км 8/6 600 м
[Sc Ci fib]
+1.5 -6.6 55 -3 -1 1020.9 964.0
12 13.04 СЗ 3 50 км 8/0
[Ci fib]
+3.3 -10.0 37 0 +3 1020.6 964.1
15 13.04 С 2 50 км 3/0
[Ci fib]
+0.9 -11.9 38 -2 -2 1021.6 964.6 +3.4
18 13.04 СВ 5 50 км ясно -2.1 -13.0 43 -8 -8 1023.9 966.1
21 13.04 СВ 4
{10}
50 км 4/0
[Ci sp]
-4.4 -13.7 48 -10 -10 1026.0 967.6
00 14.04 СВ 3 50 км ясно -6.5 -14.6 53 -12 -12 1027.5 968.6
03 14.04 СВ 5-10
{10}
50 км ясно -6.0 -14.2 52 -13 -12 1028.4 969.5 -7.5 55
06 14.04 В 5
{10}
50 км ясно -4.0 -14.8 43 -10 -6 1028.8 970.3
09 14.04 В 4 50 км ясно -1.4 -15.4 34 -6 0 1027.9 970.0
12 14.04 СВ 3 50 км ясно 0.0 -15.9 29 -4 -0 1027.1 969.5
15 14.04 В 2 50 км ясно -2.1 -16.4 33 -5 -5 1026.8 968.8 +0.3
18 14.04 ЮВ 2 50 км ясно -5.6 -17.2 40 -9 -9 1027.0 968.3
21 14.04 штиль 0 50 км ясно -9.9 -15.2 65 -10 -10 1027.1 967.4
00 15.04 ЮЗ 1 50 км ясно -9.0 -16.8 53 -11 -11 1025.2 965.9
03 15.04 ЮЗ 2 50 км ясно -5.1 -15.4 44 -9 -7 1022.7 964.3 -11.4 55
06 15.04 З 4 50 км 6/0
[Ac lent Ci]
-0.7 -13.2 38 -5 -1 1019.8 962.6
09 15.04 З 6-10
{12}
50 км 8/0
[Cc]
+1.7 -12.9 33 -3 -0 1016.6 960.0
12 15.04 З 6-11
{13}
50 км 10/0 2000 м
[Ac lent Cc]
+2.6 -11.7 34 -2 -2 1014.0 957.7
15 15.04 З 5
{14}
50 км 10/10 600 м
[Sc]
+0.6 -5.8 62 -5 -5 1013.1 956.5 +2.6
18 15.04 З 4
{11}
4000 м слаб. ливневой снег 10/10 600 м
[Cb calv]
-1.3 -2.0 95 -7 -7 1012.0 955.1
21 15.04 З 4 4000 м слаб. ливневой снег 10/10 600 м
[Cb calv]
-1.1 -1.7 96 -7 -7 1009.6 952.9
00 16.04 З 5 4000 м слаб. ливневой снег 10/10 600 м
[Cb calv]
-1.1 -1.7 96 -8 -8 1007.5 950.9
03 16.04 З 4 4000 м слаб. ливневой снег 10/10 600 м
[Cb calv]
-1.0 -1.8 94 -7 -7 1006.5 949.9 -1.3 3 55
06 16.04 С 5-10
{10}
50 км {ливн. осадки} 10/10 600 м
[Sc]
-1.2 -3.1 87 -8 -8 1006.5 949.9
09 16.04 С 5
{11}
50 км в посл. час ливневой снег 10/10 600 м
[Sc]
-2.6 -8.5 64 -9 -9 1008.2 951.2
12 16.04 СЗ 5
{14}
50 км {ливн. осадки} 9/9 600 м
[Sc]
-3.1 -9.9 59 -9 -9 1010.3 953.0
15 16.04 С 5
{15}
50 км 4/4 600 м
[Sc]
-7.1 -16.7 46 -14 -14 1014.9 956.6 -0.2 0.5
18 16.04 С 6-10
{13}
50 км ясно -10.5 -17.8 55 -19 -19 1019.8 960.4
21 16.04 СЗ 4
{11}
50 км 10/0
[Cs]
-11.1 -17.6 59 -18 -18 1021.9 962.3
00 17.04 С 4
{11}
50 км 3/3 600 м
[Sc]
-12.8 -18.7 61 -20 -20 1024.2 964.0
03 17.04 С 6
{11}
50 км ясно -12.5 -18.5 61 -21 -21 1026.1 965.9 -13.5 61
06 17.04 С 5
{12}
50 км ясно -8.1 -18.6 43 -15 -11 1027.3 968.0
09 17.04 С 6
{11}
50 км ясно -4.7 -17.8 35 -12 -8 1027.9 969.3
12 17.04 СЗ 4
{10}
50 км 6/0
[Ci fib]
-3.7 -17.7 33 -9 -6 1028.5 970.1
15 17.04 СЗ 3 50 км 3/0
[Ci fib]
-4.7 -17.3 37 -9 -9 1028.8 970.2 -3.4
18 17.04 СЗ 2 50 км ясно -8.0 -17.1 48 -12 -12 1029.8 970.4
21 17.04 СЗ 4 50 км ясно -9.0 -17.7 49 -16 -16 1029.6 970.0
00 18.04 З 2 50 км ясно -11.2 -17.6 59 -16 -16 1030.2 970.1
03 18.04 ЮЗ 3 50 км ясно -8.8 -17.2 51 -14 -13 1029.5 970.0 -12.3 58
06 18.04 З 6-12
{12}
50 км ясно -2.8 -16.9 33 -9 -6 1028.5 970.3
09 18.04 З 6-10
{12}
50 км ясно -0.2 -15.8 30 -6 -2 1027.8 970.2
12 18.04 З 5
{10}
50 км ясно +1.3 -15.9 26 -3 -1 1027.0 969.7
15 18.04 З 3
{11}
50 км 3/0
[Ci sp]
-0.1 -15.2 31 -4 -4 1027.0 969.4 +1.6
18 18.04 З 2 50 км 3/0
[Ci fib]
-2.5 -16.0 35 -6 -6 1027.6 969.5
21 18.04 З 2 50 км ясно -3.9 -15.8 39 -7 -7 1027.3 968.9
00 19.04 З 3 50 км ясно -3.4 -15.2 40 -8 -8 1026.4 968.1
03 19.04 З 3 50 км 6/6 600 м
[Sc]
-1.9 -13.8 40 -6 -5 1025.2 967.4 -7.8 55
06 19.04 З 5 50 км 8/0
[Ac trans]
+2.5 -6.4 52 -2 0 1023.7 966.9
09 19.04 СЗ 5 50 км 9/9 600 м
[Sc]
+2.7 -7.3 48 -2 -1 1022.8 966.1
12 19.04 СЗ 5
{10}
50 км 9/9 600 м
[Sc]
+2.5 -6.7 51 -2 -2 1022.1 965.3
15 19.04 СЗ 3
{10}
50 км 10/10 600 м
[Sc]
+1.6 -5.7 58 -2 -2 1021.7 964.8 +3.2
18 19.04 СЗ 3 50 км 6/6 600 м
[Sc]
+0.5 -5.3 65 -4 -4 1021.8 964.7
21 19.04 СЗ 3 50 км ясно -0.1 -5.0 70 -4 -4 1021.7 964.5
00 20.04 СЗ 3 50 км 9/9 600 м
[Sc]
-0.5 -4.5 74 -5 -5 1021.6 964.3
03 20.04 СЗ 3 50 км 10/10 600 м
[Sc]
-0.2 -3.8 77 -5 -5 1022.1 964.8 -0.6 52

 

Местоположение метеостанции Бисер (Пермский край, Россия): широта 58.52 долгота 58.85 высота над уровнем моря 464 м.

В архиве по умолчанию представлена погода в Бисере за последнюю неделю. Архивные данные за месяц целиком и за предыдущие месяцы, начиная с января 2011 года, Вы можете получить, выбрав интересующий диапазон дат из раскрывающегося списка и нажав кнопку "Ввод!".


*Определитесь, кто Вы:
робот инопланетянин человек

Внимание! Время в таблицах - всемирное. Для получения местного времени необходимо прибавить поправку, которая равна 5 ч.

Смотрите также архив погоды в соседних городах и на ближайших метеорологических станциях:

Погода в Качканаре (Свердловская область, Россия) (43 км)
Погода в Кушве (Свердловская область, Россия) (57 км)
Погода в Лысьве (Пермский край, Россия) (77 км)
Погода в Кыне (Пермский край, Россия) (78 км)
Погода в Губахе (Пермский край, Россия) (89 км)
Погода в Нижнем Тагиле (Свердловская область, Россия) (101 км)
Погода в Висиме (Свердловская область, Россия) (103 км)
Погода в Кытлыме (Свердловская область, Россия) (111 км)
Погода в Верхотурье (Свердловская область, Россия) (118 км)
Погода в Шамарах (Свердловская область, Россия) (135 км)

Пояснения к столбцам:

Ветер - указаны скорость ветра в м/с - средняя за 10 мин, порывы в срок и между сроками (в фигурных скобках) и направление, откуда дует ветер: С - северный, СВ - северо-восточный, В - восточный, ЮВ - юго-восточный, Ю - южный, ЮЗ - юго-западный, З - западный, СЗ - северо-западный.
Видимость - горизонтальная дальность видимости в метрах или километрах. При видимости от 1 до 10 км при отсутствии осадков обычно наблюдается дымка, при ухудшении видимости до 1 км и менее - туман. В сухую погоду видимость может ухудшаться дымом, пылью или мглою.
Явления - указаны атмосферные явления, наблюдавшиеся в срок или в последний час перед сроком; фигурными скобками обозначены явления, наблюдавшиеся между сроками (за 1-3 часа до срока); квадратными скобками обозначены град или гололедные отложения с указанием их диаметра в мм.
Облачность - указаны через наклонную черту общая и нижняя облачность в баллах и высота нижней границы облаков в метрах; квадратными скобками обозначены формы облаков: Ci - перистые, Cs - перисто-слоистые, Cc - перисто-кучевые, Ac - высококучевые, As - высокослоистые, Sc - слоисто-кучевые, Ns - слоисто-дождевые, Cu - кучевые, Cb - кучево-дождевые. Подробнее классификацию облаков см. в Атласе облаков (PDF).
T - Температура воздуха - температура, измеренная на высоте 2 м над землей.
Td - Температура точки росы - температура, при понижении до которой содержащийся в воздухе водяной пар достигнет насыщения.
f - Относительная влажность воздуха - влажноcть воздуха, измеренная на высоте 2 м над землей.
Te - Эффективная температура - температура, которую ощущает одетый по сезону человек в тени. Характеристика душности погоды. При расчете учитывается влияние влажности воздуха и скорости ветра на теплоощущения человека.
Tes - Эффективная температура на солнце - температура, которую ощущает человек, с поправкой на солнечный нагрев. Характеристика знойности погоды. Зависит от высоты солнца над горизонтом, облачности и скорости ветра. Ночью, в пасмурную погоду, а также при ветре 12 м/с и более поправка равна нулю.
P - Атмосферное давление - приведенное к уровню моря атмосферное давление.
Po - Атмосферное давление - измеренное на уровне метеостанции атмосферное давление.
Tmin - Минимальная температура - минимум температуры воздуха на высоте 2 м над землей.
Tmax - Максимальная температура - максимум температуры воздуха на высоте 2 м над землей.
R - Количество осадков - Количество выпавших осадков за период времени, мм. При наведении курсора мыши на число - период времени, за который выпало указанное количество осадков.
R24 - Количество осадков - Количество выпавших осадков за 24 часа, мм.
S - Снежный покров - Высота снежного покрова, см. При наведении курсора мыши на число - состояние снежного покрова и степень покрытия местности в баллах.